JST519 YSSY-YMML

Flight info

Callsign JST519
Flight time 1h 5m
Altitude 36000
Route GROOK1/16R WOL H65 LEECE Q29 ML
Aircraft A320/M-SDE3FGHIRWY/LB1

Departure

Time 2026-04-21 06:08
Airport Sydney Kingsford Smith International Airport (YSSY)

Arrival

Time 2026-04-21 07:13
Airport Melbourne Airport (YMML)
Time Latitude Longitude Altitude Speed Heading
2026-04-21 05:48 -33.93512 151.17682 30 ft 0 kts 101°
2026-04-21 05:59 -33.93510 151.17664 30 ft 4 kts 97°
2026-04-21 05:59 -33.93508 151.17632 30 ft 4 kts 83°
2026-04-21 06:00 -33.93527 151.17596 30 ft 0 kts 348°
2026-04-21 06:03 -33.93517 151.17593 30 ft 4 kts 348°
2026-04-21 06:03 -33.93500 151.17589 30 ft 0 kts 348°
2026-04-21 06:04 -33.93468 151.17569 30 ft 10 kts 310°
2026-04-21 06:04 -33.93470 151.17481 30 ft 7 kts 257°
2026-04-21 06:05 -33.93471 151.17478 30 ft 0 kts 257°
2026-04-21 06:05 -33.93477 151.17447 29 ft 10 kts 257°
2026-04-21 06:05 -33.93495 151.17344 27 ft 11 kts 258°
2026-04-21 06:05 -33.93514 151.17304 27 ft 6 kts 208°
2026-04-21 06:06 -33.93548 151.17318 27 ft 6 kts 163°
2026-04-21 06:06 -33.93562 151.17321 27 ft 0 kts 169°
2026-04-21 06:07 -33.93588 151.17327 27 ft 8 kts 169°
2026-04-21 06:07 -33.93700 151.17355 28 ft 42 kts 167°
2026-04-21 06:08 -33.94321 151.17518 32 ft 138 kts 168°
2026-04-21 06:08 -33.95453 151.17810 549 ft 174 kts 168°
2026-04-21 06:08 -33.96631 151.17915 1744 ft 170 kts 180°
2026-04-21 06:08 -33.97759 151.17817 2844 ft 155 kts 184°
2026-04-21 06:09 -33.98842 151.17730 3417 ft 162 kts 182°
2026-04-21 06:09 -34.00047 151.17655 3720 ft 185 kts 182°
2026-04-21 06:09 -34.01363 151.17579 3918 ft 207 kts 182°
2026-04-21 06:09 -34.02850 151.17585 4200 ft 219 kts 171°
2026-04-21 06:10 -34.04330 151.18048 4632 ft 222 kts 165°
2026-04-21 06:10 -34.05822 151.18549 5110 ft 223 kts 165°
2026-04-21 06:10 -34.07324 151.19051 5575 ft 225 kts 165°
2026-04-21 06:10 -34.08839 151.19557 6027 ft 226 kts 165°
2026-04-21 06:11 -34.10381 151.20067 6318 ft 239 kts 165°
2026-04-21 06:11 -34.12073 151.20625 6595 ft 263 kts 165°
2026-04-21 06:11 -34.13862 151.21222 7407 ft 268 kts 165°
2026-04-21 06:11 -34.15673 151.21830 8265 ft 273 kts 165°
2026-04-21 06:12 -34.17531 151.22360 9105 ft 277 kts 174°
2026-04-21 06:12 -34.19465 151.22228 9918 ft 282 kts 193°
2026-04-21 06:12 -34.21306 151.21303 10498 ft 298 kts 213°
2026-04-21 06:12 -34.22850 151.19553 11070 ft 311 kts 229°
2026-04-21 06:13 -34.24259 151.17533 11851 ft 316 kts 229°
2026-04-21 06:13 -34.25692 151.15505 12649 ft 319 kts 228°
2026-04-21 06:13 -34.27130 151.13483 13428 ft 323 kts 228°
2026-04-21 06:13 -34.28602 151.11416 14201 ft 326 kts 228°
2026-04-21 06:14 -34.30091 151.09330 14975 ft 329 kts 228°
2026-04-21 06:14 -34.31601 151.07214 15710 ft 333 kts 228°
2026-04-21 06:14 -34.33118 151.05072 16445 ft 336 kts 228°
2026-04-21 06:14 -34.34642 151.02908 17156 ft 340 kts 228°
2026-04-21 06:15 -34.36184 151.00725 17835 ft 343 kts 228°
2026-04-21 06:15 -34.37828 150.98604 18464 ft 348 kts 221°
2026-04-21 06:15 -34.39642 150.96625 18796 ft 360 kts 220°
2026-04-21 06:15 -34.41525 150.94590 19364 ft 366 kts 220°
2026-04-21 06:16 -34.43437 150.92531 19987 ft 369 kts 220°
2026-04-21 06:16 -34.45370 150.90449 20616 ft 372 kts 220°
2026-04-21 06:16 -34.47295 150.88365 21238 ft 375 kts 220°
2026-04-21 06:16 -34.49252 150.86240 21850 ft 379 kts 220°
2026-04-21 06:17 -34.51220 150.84096 22456 ft 381 kts 220°
2026-04-21 06:17 -34.53206 150.81933 23049 ft 385 kts 220°
2026-04-21 06:17 -34.55195 150.79738 23616 ft 388 kts 223°
2026-04-21 06:17 -34.56928 150.77259 24149 ft 393 kts 232°
2026-04-21 06:18 -34.58539 150.74565 24679 ft 396 kts 232°
2026-04-21 06:18 -34.60170 150.71852 25192 ft 399 kts 232°
2026-04-21 06:18 -34.61813 150.69127 25692 ft 401 kts 232°
2026-04-21 06:18 -34.63464 150.66387 26178 ft 403 kts 232°
2026-04-21 06:19 -34.65126 150.63628 26643 ft 406 kts 232°
2026-04-21 06:19 -34.66801 150.60854 27102 ft 409 kts 232°
2026-04-21 06:19 -34.68490 150.58054 27543 ft 411 kts 232°
2026-04-21 06:19 -34.70181 150.55242 27976 ft 413 kts 232°
2026-04-21 06:20 -34.71881 150.52408 28393 ft 416 kts 232°
2026-04-21 06:20 -34.73590 150.49551 28812 ft 418 kts 232°
2026-04-21 06:20 -34.75286 150.46715 29221 ft 421 kts 232°
2026-04-21 06:20 -34.77015 150.43826 29629 ft 423 kts 232°
2026-04-21 06:21 -34.78749 150.40930 30030 ft 425 kts 232°
2026-04-21 06:21 -34.80491 150.38017 30406 ft 427 kts 232°
2026-04-21 06:21 -34.82245 150.35079 30770 ft 429 kts 232°
2026-04-21 06:21 -34.84001 150.32135 31124 ft 432 kts 232°
2026-04-21 06:22 -34.85776 150.29158 31480 ft 434 kts 232°
2026-04-21 06:22 -34.87527 150.26221 31815 ft 436 kts 232°
2026-04-21 06:22 -34.89319 150.23219 32160 ft 438 kts 232°
2026-04-21 06:22 -34.91109 150.20215 32579 ft 438 kts 232°
2026-04-21 06:23 -34.92891 150.17215 33063 ft 436 kts 232°
2026-04-21 06:23 -34.94664 150.14224 33545 ft 435 kts 232°
2026-04-21 06:23 -34.96438 150.11229 34004 ft 433 kts 232°
2026-04-21 06:23 -34.98197 150.08256 34449 ft 432 kts 232°
2026-04-21 06:24 -34.99952 150.05284 34880 ft 431 kts 232°
2026-04-21 06:24 -35.01708 150.02315 35293 ft 430 kts 232°
2026-04-21 06:24 -35.03437 149.99390 35692 ft 430 kts 232°
2026-04-21 06:24 -35.05186 149.96437 36075 ft 430 kts 233°
2026-04-21 06:25 -35.06936 149.93480 36316 ft 430 kts 233°
2026-04-21 06:25 -35.10395 149.87613 36350 ft 420 kts 233°
2026-04-21 06:26 -35.13782 149.81853 36350 ft 419 kts 233°
2026-04-21 06:26 -35.17184 149.76060 36358 ft 418 kts 232°
2026-04-21 06:27 -35.20585 149.70276 36356 ft 419 kts 233°
2026-04-21 06:27 -35.23978 149.64490 36352 ft 419 kts 233°
2026-04-21 06:28 -35.27377 149.58675 36361 ft 420 kts 233°
2026-04-21 06:28 -35.30755 149.52883 36369 ft 420 kts 233°
2026-04-21 06:29 -35.34154 149.47045 36376 ft 421 kts 233°
2026-04-21 06:29 -35.37544 149.41210 36379 ft 420 kts 233°
2026-04-21 06:30 -35.40945 149.35365 36378 ft 420 kts 233°
2026-04-21 06:30 -35.44318 149.29546 36377 ft 420 kts 233°
2026-04-21 06:31 -35.47698 149.23698 36378 ft 420 kts 233°
2026-04-21 06:31 -35.51079 149.17842 36375 ft 420 kts 233°
2026-04-21 06:32 -35.54461 149.11989 36377 ft 420 kts 233°
2026-04-21 06:32 -35.57823 149.06156 36378 ft 421 kts 233°
2026-04-21 06:33 -35.61202 149.00277 36379 ft 421 kts 233°
2026-04-21 06:33 -35.64579 148.94392 36378 ft 420 kts 233°
2026-04-21 06:34 -35.67951 148.88499 36379 ft 420 kts 233°
2026-04-21 06:34 -35.71316 148.82622 36378 ft 420 kts 233°
2026-04-21 06:35 -35.74663 148.76765 36374 ft 420 kts 234°
2026-04-21 06:35 -35.78031 148.70855 36369 ft 420 kts 234°
2026-04-21 06:36 -35.81387 148.64959 36367 ft 420 kts 234°
2026-04-21 06:36 -35.84717 148.59094 36366 ft 420 kts 234°
2026-04-21 06:37 -35.88070 148.53175 36365 ft 420 kts 234°
2026-04-21 06:37 -35.91419 148.47252 36366 ft 420 kts 234°
2026-04-21 06:38 -35.94732 148.41363 36364 ft 420 kts 234°
2026-04-21 06:38 -35.98063 148.35422 36366 ft 421 kts 234°
2026-04-21 06:39 -36.01401 148.29483 36365 ft 421 kts 234°
2026-04-21 06:39 -36.04744 148.23535 36365 ft 421 kts 234°
2026-04-21 06:40 -36.08071 148.17582 36367 ft 421 kts 234°
2026-04-21 06:40 -36.11391 148.11613 36367 ft 421 kts 234°
2026-04-21 06:40 -36.13031 148.08670 36196 ft 420 kts 234°
2026-04-21 06:41 -36.14691 148.05704 35948 ft 419 kts 234°
2026-04-21 06:41 -36.16350 148.02738 35699 ft 419 kts 234°
2026-04-21 06:41 -36.18013 147.99766 35446 ft 419 kts 234°
2026-04-21 06:41 -36.19677 147.96795 35197 ft 420 kts 234°
2026-04-21 06:42 -36.21337 147.93823 34950 ft 419 kts 234°
2026-04-21 06:42 -36.22996 147.90848 34696 ft 418 kts 234°
2026-04-21 06:42 -36.24643 147.87890 34447 ft 416 kts 234°
2026-04-21 06:42 -36.26286 147.84936 34195 ft 414 kts 234°
2026-04-21 06:43 -36.27920 147.81996 33955 ft 413 kts 234°
2026-04-21 06:43 -36.29544 147.79065 33698 ft 411 kts 234°
2026-04-21 06:43 -36.31161 147.76142 33445 ft 410 kts 234°
2026-04-21 06:43 -36.32751 147.73265 33199 ft 409 kts 234°
2026-04-21 06:44 -36.34355 147.70366 32945 ft 407 kts 234°
2026-04-21 06:44 -36.35957 147.67470 32690 ft 406 kts 234°
2026-04-21 06:44 -36.37552 147.64583 32446 ft 404 kts 234°
2026-04-21 06:44 -36.39139 147.61703 32193 ft 403 kts 234°
2026-04-21 06:45 -36.40719 147.58836 31946 ft 401 kts 234°
2026-04-21 06:45 -36.42289 147.55979 31694 ft 400 kts 234°
2026-04-21 06:45 -36.43840 147.53156 31449 ft 399 kts 234°
2026-04-21 06:45 -36.45402 147.50307 31195 ft 398 kts 234°
2026-04-21 06:46 -36.46956 147.47472 30942 ft 396 kts 234°
2026-04-21 06:46 -36.48504 147.44647 30696 ft 395 kts 234°
2026-04-21 06:46 -36.50049 147.41827 30446 ft 393 kts 234°
2026-04-21 06:46 -36.51587 147.39021 30198 ft 392 kts 234°
2026-04-21 06:47 -36.53120 147.36216 29947 ft 391 kts 234°
2026-04-21 06:47 -36.54646 147.33427 29696 ft 389 kts 234°
2026-04-21 06:47 -36.56166 147.30647 29445 ft 388 kts 234°
2026-04-21 06:47 -36.57685 147.27865 29189 ft 387 kts 234°
2026-04-21 06:48 -36.59197 147.25093 28943 ft 386 kts 234°
2026-04-21 06:48 -36.60698 147.22333 28701 ft 385 kts 234°
2026-04-21 06:48 -36.62186 147.19599 28445 ft 383 kts 234°
2026-04-21 06:48 -36.63677 147.16861 28194 ft 382 kts 234°
2026-04-21 06:49 -36.65171 147.14112 27942 ft 381 kts 234°
2026-04-21 06:49 -36.66645 147.11398 27691 ft 379 kts 234°
2026-04-21 06:49 -36.68115 147.08679 27437 ft 378 kts 234°
2026-04-21 06:49 -36.69584 147.05962 27192 ft 377 kts 234°
2026-04-21 06:50 -36.71048 147.03256 26936 ft 376 kts 234°
2026-04-21 06:50 -36.72516 147.00547 26683 ft 375 kts 234°
2026-04-21 06:50 -36.73974 146.97856 26437 ft 374 kts 234°
2026-04-21 06:50 -36.75423 146.95177 26191 ft 373 kts 234°
2026-04-21 06:51 -36.76854 146.92527 25940 ft 371 kts 235°
2026-04-21 06:51 -36.78308 146.89825 25682 ft 370 kts 235°
2026-04-21 06:51 -36.79725 146.87195 25439 ft 369 kts 234°
2026-04-21 06:51 -36.81153 146.84547 25189 ft 367 kts 234°
2026-04-21 06:52 -36.82577 146.81902 24939 ft 366 kts 235°
2026-04-21 06:52 -36.83994 146.79268 24689 ft 365 kts 235°
2026-04-21 06:52 -36.85406 146.76641 24443 ft 364 kts 235°
2026-04-21 06:52 -36.86818 146.74010 24187 ft 363 kts 235°
2026-04-21 06:53 -36.88224 146.71385 23935 ft 362 kts 235°
2026-04-21 06:53 -36.89620 146.68776 23686 ft 361 kts 235°
2026-04-21 06:53 -36.91013 146.66178 23434 ft 359 kts 235°
2026-04-21 06:53 -36.92388 146.63615 23188 ft 358 kts 235°
2026-04-21 06:54 -36.93768 146.61035 22937 ft 357 kts 235°
2026-04-21 06:54 -36.95147 146.58453 22693 ft 355 kts 235°
2026-04-21 06:54 -36.96055 146.56752 22520 ft 354 kts 235°
2026-04-21 06:54 -36.97425 146.54185 22269 ft 353 kts 235°
2026-04-21 06:55 -36.98785 146.51632 22021 ft 352 kts 235°
2026-04-21 06:55 -37.00143 146.49080 21768 ft 351 kts 235°
2026-04-21 06:55 -37.01494 146.46546 21517 ft 349 kts 235°
2026-04-21 06:55 -37.02842 146.44014 21265 ft 348 kts 235°
2026-04-21 06:56 -37.04167 146.41523 21016 ft 347 kts 235°
2026-04-21 06:56 -37.05505 146.39006 20760 ft 346 kts 235°
2026-04-21 06:56 -37.06834 146.36506 20514 ft 345 kts 235°
2026-04-21 06:56 -37.08160 146.34014 20263 ft 343 kts 235°
2026-04-21 06:57 -37.09482 146.31522 20005 ft 342 kts 235°
2026-04-21 06:57 -37.10798 146.29037 19758 ft 341 kts 235°
2026-04-21 06:57 -37.12103 146.26568 19518 ft 339 kts 235°
2026-04-21 06:57 -37.13408 146.24099 19259 ft 338 kts 235°
2026-04-21 06:58 -37.14703 146.21646 19008 ft 337 kts 235°
2026-04-21 06:58 -37.15999 146.19192 18761 ft 336 kts 235°
2026-04-21 06:58 -37.17289 146.16750 18506 ft 335 kts 235°
2026-04-21 06:58 -37.18555 146.14354 18258 ft 334 kts 235°
2026-04-21 06:59 -37.19830 146.11933 18005 ft 332 kts 235°
2026-04-21 06:59 -37.21103 146.09516 17758 ft 331 kts 235°
2026-04-21 06:59 -37.22368 146.07111 17514 ft 330 kts 235°
2026-04-21 06:59 -37.23633 146.04708 17257 ft 329 kts 235°
2026-04-21 07:00 -37.24889 146.02319 17007 ft 328 kts 235°
2026-04-21 07:00 -37.26145 145.99925 16756 ft 326 kts 235°
2026-04-21 07:00 -37.27393 145.97543 16503 ft 325 kts 235°
2026-04-21 07:00 -37.28636 145.95174 16254 ft 324 kts 235°
2026-04-21 07:01 -37.29875 145.92815 16003 ft 323 kts 235°
2026-04-21 07:01 -37.31109 145.90466 15759 ft 335 kts 235°
2026-04-21 07:01 -37.33747 145.85439 15248 ft 347 kts 236°
2026-04-21 07:02 -37.35076 145.82906 15000 ft 347 kts 236°
2026-04-21 07:02 -37.36400 145.80379 14742 ft 346 kts 236°
2026-04-21 07:02 -37.37724 145.77851 14490 ft 344 kts 236°
2026-04-21 07:02 -37.39038 145.75337 14243 ft 343 kts 236°
2026-04-21 07:03 -37.40350 145.72828 14003 ft 342 kts 236°
2026-04-21 07:03 -37.41653 145.70337 13676 ft 340 kts 236°
2026-04-21 07:03 -37.42932 145.67886 13263 ft 338 kts 236°
2026-04-21 07:03 -37.44216 145.65425 12843 ft 335 kts 236°
2026-04-21 07:04 -37.45495 145.62977 12406 ft 333 kts 236°
2026-04-21 07:04 -37.46765 145.60549 11984 ft 332 kts 236°
2026-04-21 07:04 -37.48036 145.58126 11580 ft 329 kts 236°
2026-04-21 07:04 -37.49296 145.55728 11170 ft 328 kts 236°
2026-04-21 07:05 -37.50550 145.53341 10755 ft 326 kts 236°
2026-04-21 07:05 -37.51799 145.50959 10342 ft 324 kts 236°
2026-04-21 07:05 -37.53042 145.48594 9929 ft 323 kts 236°
2026-04-21 07:05 -37.54278 145.46246 9522 ft 321 kts 236°
2026-04-21 07:06 -37.55509 145.43896 9121 ft 319 kts 237°
2026-04-21 07:06 -37.56727 145.41565 8710 ft 318 kts 237°
2026-04-21 07:06 -37.57934 145.39250 8309 ft 316 kts 237°
2026-04-21 07:06 -37.59139 145.36936 7910 ft 314 kts 237°
2026-04-21 07:07 -37.60332 145.34637 7497 ft 312 kts 237°
2026-04-21 07:07 -37.61511 145.32373 7253 ft 310 kts 237°
2026-04-21 07:07 -37.62703 145.30084 7152 ft 312 kts 237°
2026-04-21 07:07 -37.63895 145.27794 7031 ft 311 kts 237°
2026-04-21 07:08 -37.64788 145.25322 6865 ft 311 kts 255°
2026-04-21 07:08 -37.65173 145.22578 6086 ft 323 kts 262°
2026-04-21 07:08 -37.65468 145.19741 5301 ft 329 kts 263°
2026-04-21 07:08 -37.65744 145.16873 4754 ft 325 kts 263°
2026-04-21 07:09 -37.66007 145.14101 4301 ft 319 kts 263°
2026-04-21 07:09 -37.66273 145.11336 3752 ft 317 kts 264°
2026-04-21 07:09 -37.66543 145.08577 3552 ft 316 kts 263°
2026-04-21 07:09 -37.66808 145.05952 3409 ft 294 kts 263°
2026-04-21 07:10 -37.67055 145.03550 3285 ft 272 kts 263°
2026-04-21 07:10 -37.67178 145.01231 2957 ft 259 kts 272°
2026-04-21 07:10 -37.67062 144.99004 2621 ft 249 kts 275°
2026-04-21 07:10 -37.66923 144.96882 2315 ft 235 kts 275°
2026-04-21 07:11 -37.66805 144.94874 1994 ft 222 kts 275°
2026-04-21 07:11 -37.66697 144.92983 1722 ft 208 kts 276°
2026-04-21 07:11 -37.66597 144.91243 1472 ft 188 kts 276°
2026-04-21 07:11 -37.66509 144.89701 1221 ft 164 kts 276°
2026-04-21 07:12 -37.66432 144.88363 1002 ft 148 kts 276°
2026-04-21 07:12 -37.66359 144.87098 811 ft 142 kts 276°
2026-04-21 07:12 -37.66289 144.85905 636 ft 140 kts 276°
2026-04-21 07:12 -37.66218 144.84691 464 ft 139 kts 275°
2026-04-21 07:13 -37.66152 144.83516 416 ft 113 kts 275°
2026-04-21 07:13 -37.66119 144.82851 406 ft 56 kts 275°
2026-04-21 07:13 -37.66092 144.82435 400 ft 30 kts 274°
2026-04-21 07:13 -37.66151 144.82247 401 ft 23 kts 207°
2026-04-21 07:14 -37.66327 144.82236 390 ft 28 kts 155°
2026-04-21 07:14 -37.66409 144.82464 380 ft 32 kts 102°
2026-04-21 07:14 -37.66442 144.82731 386 ft 30 kts 94°
2026-04-21 07:14 -37.66459 144.83000 390 ft 30 kts 94°
2026-04-21 07:15 -37.66473 144.83252 397 ft 28 kts 94°
2026-04-21 07:15 -37.66487 144.83466 404 ft 17 kts 99°
2026-04-21 07:15 -37.66492 144.83527 404 ft 0 kts 94°
2026-04-21 07:16 -37.66493 144.83546 404 ft 7 kts 94°
2026-04-21 07:16 -37.66498 144.83643 405 ft 13 kts 93°
2026-04-21 07:17 -37.66504 144.83769 402 ft 16 kts 93°
2026-04-21 07:17 -37.66522 144.83915 402 ft 18 kts 125°
2026-04-21 07:17 -37.66653 144.83958 398 ft 23 kts 172°
2026-04-21 07:17 -37.66828 144.83989 391 ft 28 kts 172°
2026-04-21 07:18 -37.67028 144.84026 385 ft 30 kts 172°
2026-04-21 07:18 -37.67247 144.84069 378 ft 34 kts 171°
2026-04-21 07:18 -37.67431 144.84104 373 ft 17 kts 171°
2026-04-21 07:18 -37.67502 144.84198 372 ft 17 kts 89°
2026-04-21 07:19 -37.67556 144.84324 374 ft 18 kts 149°
2026-04-21 07:19 -37.67638 144.84350 371 ft 7 kts 171°
2026-04-21 07:19 -37.67704 144.84363 371 ft 12 kts 170°
2026-04-21 07:19 -37.67802 144.84389 368 ft 16 kts 156°
2026-04-21 07:20 -37.67827 144.84524 368 ft 18 kts 82°
2026-04-21 07:20 -37.67776 144.84590 373 ft 6 kts 348°
2026-04-21 07:20 -37.67734 144.84583 370 ft 6 kts 353°
2026-04-21 07:20 -37.67696 144.84577 372 ft 5 kts 353°
2026-04-21 07:21 -37.67658 144.84571 373 ft 6 kts 352°
2026-04-21 07:21 -37.67625 144.84576 374 ft 4 kts 39°
2026-04-21 07:21 -37.67618 144.84607 375 ft 4 kts 78°
2026-04-21 07:21 -37.67613 144.84644 376 ft 5 kts 81°
2026-04-21 07:22 -37.67611 144.84659 376 ft 0 kts 81°
2026-04-21 07:22 -37.67610 144.84662 376 ft 1 kts 81°